Hill Air Force Base, UT

9:40 PM MST on February 12, 2016 (GMT -0700)
Hill Air Force Base

Weather History for KHIF - October, 2013

Change the Weather History Date:

Thursday, October 31, 2013

  Actual Average Record
Temperature  
Mean Temperature 44 °F -  
Max Temperature 48 °F 48 °F 74 °F (2014)
Min Temperature 39 °F 33 °F 19 °F (2002)
Degree Days  
Heating Degree Days 22    
Moisture  
Dew Point 30 °F    
Average Humidity 60    
Maximum Humidity 75    
Minimum Humidity 43    
Precipitation  
Precipitation 0.00 in - - ()
Sea Level Pressure  
Sea Level Pressure 30.14 in    
Wind  
Wind Speed 5 mph (SSW)    
Max Wind Speed 13 mph    
Max Gust Speed -    
Visibility 10 miles    
Events Rain    
Averages and records for this station are not official NWS values.
T = Trace of Precipitation, MM = Missing Value Source: NWS Daily Summary

Daily Weather History Graph

Daily Weather History Graph

Search for Another Location

Airport or City:

Trip Planner

Search our weather history database for the weather conditions in past years. The results will help you decide how hot, cold, wet, or windy it might be!

Date:

Astronomy

Oct. 31, 2013 Rise Set
Actual Time 7:58 AM MDT 6:24 PM MDT
Civil Twilight 7:29 AM MDT 6:52 PM MDT
Nautical Twilight 6:57 AM MDT 7:25 PM MDT
Astronomical Twilight 6:24 AM MDT 7:57 PM MDT
Moon 4:49 AM MDT (10/31) 4:45 PM MDT (10/31)
Length of Visible Light 11h 23m
Length of Day
10h 26m
Waning Crescent, 9% of the Moon is Illuminated
Oct 31
Waning Crescent
Nov 3
New
Nov 9
First Quarter
Nov 17
Full
Nov 25
Last Quarter

Hourly Weather History & Observations

Time (MDT) Temp. Windchill Dew Point Humidity Pressure Visibility Wind Dir Wind Speed Gust Speed Precip Events Conditions
12:58 AM 40.1 °F 38.0 °F 32.2 °F 73% 30.07 in 10.0 mi North 3.5 mph - N/A   Overcast
1:58 AM 39.9 °F - 32.0 °F 73% 30.09 in 10.0 mi NNE 1.2 mph - N/A   Overcast
2:58 AM 40.1 °F - 30.7 °F 69% 30.09 in 10.0 mi NE 2.3 mph - N/A   Overcast
3:58 AM 39.9 °F - 30.6 °F 69% 30.09 in 10.0 mi SSW 2.3 mph - N/A   Overcast
4:33 AM 39.2 °F 37.0 °F 32.0 °F 75% 30.11 in 10.0 mi SW 3.5 mph - N/A   Overcast
4:38 AM 39.2 °F - 32.0 °F 75% 30.11 in 10.0 mi SSW 2.3 mph - N/A   Overcast
4:58 AM 39.7 °F - 32.2 °F 74% 30.09 in 10.0 mi SSW 2.3 mph - N/A   Overcast
5:23 AM 39.2 °F 37.0 °F 32.0 °F 75% 30.12 in 10.0 mi South 3.5 mph - N/A   Overcast
5:33 AM 39.2 °F 35.9 °F 32.0 °F 75% 30.13 in 10.0 mi South 4.6 mph - N/A   Overcast
5:58 AM 39.7 °F 36.5 °F 31.5 °F 72% 30.11 in 10.0 mi South 4.6 mph - N/A   Overcast
6:58 AM 39.7 °F 33.7 °F 31.1 °F 71% 30.14 in 10.0 mi South 9.2 mph - N/A   Overcast
7:58 AM 39.7 °F 33.7 °F 30.9 °F 71% 30.14 in 10.0 mi South 9.2 mph - N/A   Overcast
8:48 AM 39.2 °F 33.6 °F 32.0 °F 75% 30.17 in 10.0 mi South 8.1 mph - N/A   Scattered Clouds
8:58 AM 39.9 °F 34.5 °F 30.9 °F 70% 30.17 in 10.0 mi South 8.1 mph - N/A   Scattered Clouds
9:03 AM 41.0 °F 36.4 °F 32.0 °F 70% 30.18 in 10.0 mi South 6.9 mph - N/A   Mostly Cloudy
9:08 AM 41.0 °F 37.1 °F 32.0 °F 70% 30.18 in 10.0 mi WSW 5.8 mph - N/A   Mostly Cloudy
9:58 AM 40.8 °F 36.2 °F 29.8 °F 65% 30.19 in 10.0 mi WSW 6.9 mph - N/A   Mostly Cloudy
10:58 AM 42.1 °F 37.7 °F 29.8 °F 62% 30.19 in 10.0 mi SW 6.9 mph - N/A   Overcast
11:58 AM 44.1 °F 39.5 °F 27.9 °F 53% 30.20 in 10.0 mi SW 8.1 mph - N/A   Mostly Cloudy
12:58 PM 46.8 °F - 28.2 °F 49% 30.17 in 10.0 mi WSW 9.2 mph - N/A   Scattered Clouds
1:58 PM 46.4 °F 40.7 °F 30.2 °F 53% 30.15 in 10.0 mi SW 12.7 mph - N/A   Scattered Clouds
2:58 PM 47.8 °F - 27.9 °F 46% 30.13 in 10.0 mi Variable 5.8 mph - N/A   Mostly Cloudy
3:43 PM 48.2 °F - 26.6 °F 43% 30.16 in 10.0 mi Variable 4.6 mph - N/A   Overcast
3:58 PM 46.4 °F 44.3 °F 26.6 °F 46% 30.14 in 10.0 mi SW 4.6 mph - N/A   Overcast
4:33 PM 48.2 °F - 26.6 °F 43% 30.16 in 10.0 mi SSW 10.4 mph - N/A   Mostly Cloudy
4:58 PM 46.8 °F - 25.3 °F 43% 30.14 in 10.0 mi South 5.8 mph - N/A   Overcast
5:58 PM 46.4 °F 42.9 °F 26.4 °F 46% 30.12 in 10.0 mi SSE 6.9 mph - N/A   Overcast
6:58 PM 46.2 °F 42.2 °F 26.4 °F 46% 30.11 in 10.0 mi SSE 8.1 mph - N/A   Overcast
7:08 PM 46.4 °F 41.5 °F 26.6 °F 46% 30.14 in 10.0 mi SSE 10.4 mph - N/A   Overcast
7:58 PM 46.6 °F - 26.8 °F 46% 30.12 in 10.0 mi South 8.1 mph - N/A   Overcast
8:58 PM 46.9 °F - 27.5 °F 47% 30.11 in 10.0 mi South 9.2 mph - N/A   Overcast
9:18 PM 46.4 °F 41.5 °F 28.4 °F 50% 30.14 in 10.0 mi South 10.4 mph - N/A   Overcast
9:28 PM 46.4 °F 41.9 °F 28.4 °F 50% 30.14 in 10.0 mi South 9.2 mph - N/A   Overcast
9:58 PM 46.9 °F - 29.5 °F 51% 30.12 in 10.0 mi South 9.2 mph - N/A   Overcast
10:58 PM 46.9 °F - 30.7 °F 53% 30.14 in 10.0 mi South 6.9 mph - N/A   Overcast
11:29 PM 46.4 °F 45.2 °F 32.0 °F 57% 30.18 in 10.0 mi South 3.5 mph - N/A Rain Light Rain
11:42 PM 46.4 °F 42.4 °F 32.0 °F 57% 30.18 in 10.0 mi South 8.1 mph - N/A   Overcast
11:57 PM 46.4 °F 41.5 °F 32.0 °F 57% 30.18 in 10.0 mi SSW 10.4 mph - N/A   Overcast
11:58 PM 46.6 °F - 32.0 °F 57% 30.14 in 10.0 mi SSW 10.4 mph - 0.00 in   Overcast